Tracking 17996 objects as of 27-February-2017
HD Live streaming from Space Station
objects crossing your sky now

INTELSAT 903

Track INTELSAT 903 now!
INTELSAT 903 is classified as:


NORAD ID: 27403
Int'l Code: 2002-016A
Perigee: 35,781.0 km
Apogee: 35,807.5 km
Inclination: 0.0 °
Period: 1,436.1 minutes
Semi major axis: 42165 km
RCS: 28.8022 m2 (large)
Launch date: March 30, 2002
Source: International Telecommunications Satellite Organization (ITSO)
Launch site: TYURATAM MISSILE AND SPACE COMPLEX (TTMTR)

76 C-band, 22 Ku-band, broadcasting, business services, direct-to-home TV broadcasting, telecommunications, VSAT networks; Atlantic Ocean region.
Your satellite tracking list
Your tracking list is empty





NASA's NSSDC Master Catalog

Two Line Element Set (TLE):
1 27403U 02016A   17057.14771001 -.00000250  00000-0  00000+0 0  9993
2 27403   0.0203 101.0456 0003132 245.2263 188.5572  1.00270425 54571
Source of the keplerian elements: AFSPC